[[{"header":{"parameterUnit":"m.s-1","parameterCategory":1,"la1":30.2991,"la2":30.254,"lo1":-89.0895,"lo2":-89.0444,"dy":0.0017,"dx":0.0017,"nx":28,"ny":28,"refTime":"2025-03-15T09:00:00:Z","depth":0,"parameterNumber":2,"parameterNumberName":"U-component_of_WINDS"},"data":[0,0,0,0,0,0,0,0,0,0,0,0,0,0,0,0,0,0,0,0,0,0,0,0,0,0,0,0,0,0,0,0,0,0,0,0,0,0,0,0,0,0,0,0,0,0,0,0,0,0,0,0,0,0,0,0,0,0,6.092,6.0921,0,6.1045,6.1047,6.1048,6.1033,6.1031,6.1029,6.1028,6.1159,6.1164,6.1169,0,0,0,0,0,0,0,0,0,0,0,0,0,6.0671,6.0675,6.0919,6.0921,6.0923,6.1045,6.1047,6.1048,6.1034,6.1031,6.1029,6.1027,6.1157,6.1164,6.117,0,0,0,0,0,0,0,0,0,0,0,0,0,6.0786,6.0677,6.0919,6.093,6.0932,6.1045,6.1047,6.1049,6.1034,6.1031,6.1028,6.1025,6.1155,6.1163,6.1171,6.1281,0,0,6.1196,6.1199,0,0,0,0,0,0,0,0,6.0779,6.0795,6.0927,6.093,6.0932,6.102,6.1007,6.1127,6.1035,6.0996,6.1027,6.1024,6.1116,6.1127,6.1157,6.1287,6.1293,6.1196,6.1201,6.1205,6.1207,0,0,0,0,0,0,0,6.0771,6.079,6.0969,6.0929,6.0932,6.093,6.0943,6.103,6.1071,6.0999,6.0998,6.1013,6.1116,6.1149,6.116,6.1295,6.1196,6.1203,6.1208,6.1211,6.1525,6.1529,0,0,0,0,0,0,6.076,6.0783,6.0965,6.0973,6.0847,6.0937,6.0951,6.0995,6.107,6.1079,6.1016,6.1012,6.1137,6.1151,6.1164,6.1301,6.1205,6.1212,6.1217,6.1522,6.1526,6.153,0,0,0,0,0,0,6.0755,6.0777,6.096,6.0878,6.0901,6.0944,6.0994,6.0999,6.1032,6.1083,6.109,6.1041,6.1135,6.1153,6.1253,6.1305,6.1216,6.1223,6.1518,6.1523,6.1528,6.1572,0,0,0,0,0,0,6.0748,6.0775,6.0816,6.0879,6.0906,6.1045,6.0997,6.1004,6.1046,6.1042,6.1109,6.1117,6.1134,6.1241,6.1261,6.1314,6.1229,6.1513,6.152,6.1526,6.1566,6.1578,6.1589,0,0,0,0,0,6.0739,6.0824,6.0818,6.084,6.0958,6.1048,6.1064,6.1081,6.105,6.1093,6.1126,6.1115,6.1296,6.1251,6.1274,6.133,6.151,6.1518,6.1526,6.1561,6.1576,6.1588,0,0,0,0,0,0,6.0766,6.0832,6.0827,6.0934,6.0986,6.1046,6.11,6.1095,6.1157,6.1152,6.1171,6.1187,6.1288,6.1319,6.1268,6.1442,6.1399,6.1412,6.1418,6.1433,6.1444,6.1434,6.1236,0,0,0,0,0,6.0785,6.0852,6.0906,6.0995,6.1021,6.1056,6.1096,6.1105,6.116,6.1182,6.1222,6.1276,6.1345,6.1391,6.1457,6.1571,6.1586,6.1621,6.1632,6.1641,6.1652,6.1717,6.1734,6.1556,6.1556,6.1556,0,0,6.0824,6.0868,6.0909,6.1002,6.1043,6.1113,6.1075,6.115,6.1203,6.1193,6.129,6.1322,6.1384,6.1492,6.1541,6.1521,6.1705,6.1651,6.1658,6.1664,6.1727,6.1744,6.1758,6.1561,6.156,6.1559,0,0,6.0931,6.097,6.105,6.1092,6.1155,6.1178,6.1197,6.1258,6.1279,6.1376,6.1371,6.1434,6.1553,6.1598,6.1636,6.1763,6.1756,6.1784,6.1842,6.1905,6.1919,6.1932,6.1979,6.1995,6.1794,6.1795,6.1795,0,6.0972,6.1076,6.1092,6.1169,6.1211,6.1205,6.1287,6.1327,6.1409,6.1439,6.1414,6.1564,6.1605,6.1725,6.1756,6.1786,6.1811,6.1776,6.1916,6.1928,6.194,6.1985,6.2003,6.1798,6.1797,6.1797,6.1797,0,6.1124,6.1197,6.1254,6.1333,6.1381,6.146,6.1489,6.1537,6.1542,6.1568,6.1668,6.1718,6.1795,6.1824,6.1829,6.1945,6.1931,6.1911,6.1868,6.196,6.2003,6.202,6.1802,6.1801,6.18,6.1799,0,0,6.1252,6.1339,6.136,6.1396,6.1466,6.1523,6.1603,6.1678,6.1719,6.1776,6.1844,6.1945,6.1928,6.1972,6.1983,6.2038,6.2137,6.2012,6.2013,6.2035,6.227,6.2285,6.2304,6.2133,6.2136,6.2139,6.2265,0,6.1367,6.1507,6.1524,6.1649,6.1718,6.1714,6.1784,6.1835,6.1862,6.1925,6.1955,6.2027,6.1998,6.2025,6.2079,6.2113,6.2185,6.2104,6.2199,6.2202,6.2184,6.2326,6.2343,6.2459,6.2281,6.2284,6.2286,0,6.152,6.1581,6.1713,6.1775,6.1804,6.1866,6.1938,6.1997,6.2056,6.2072,6.2122,6.2126,6.221,6.2163,6.2281,6.2226,6.2265,6.2288,6.2293,6.2304,6.225,6.2342,6.2497,6.2515,6.2312,6.231,6.2308,0,6.1602,6.1717,6.1812,6.1843,6.1917,6.1961,6.1994,6.2049,6.2094,6.2157,6.2186,6.2258,6.2298,6.2354,6.2378,6.2341,6.2495,6.245,6.2512,6.2512,6.2546,6.2544,6.271,6.2569,6.2569,6.2568,6.2568,0,6.173,6.1811,6.185,6.1908,6.2,6.2019,6.211,6.2142,6.2191,6.2257,6.2258,6.2319,6.2347,6.2414,6.2433,6.2529,6.2547,6.2563,6.2568,6.2564,6.2562,6.2591,6.2584,6.2573,6.2572,6.2571,6.257,0,6.1838,6.1866,6.1969,6.2031,6.2048,6.2114,6.2167,6.2224,6.225,6.2334,6.2354,6.2396,6.2475,6.2504,6.26,6.2614,6.2725,6.2722,6.2705,6.2706,6.2768,6.2762,6.296,6.2988,6.2827,6.2829,6.283,0,6.1918,6.198,6.2049,6.2093,6.2127,6.2197,6.2243,6.2265,6.2313,6.2385,6.2435,6.2512,6.2576,6.2702,6.2742,6.2816,6.2816,6.288,6.2827,6.2822,6.2819,6.2816,6.2823,6.2891,6.2892,6.2893,6.2895,0,6.2058,6.207,6.2135,6.2206,6.2261,6.2318,6.2373,6.2409,6.244,6.2494,6.2574,6.2624,6.2722,6.28,6.2876,6.2911,6.291,6.2911,6.293,6.2927,6.2915,6.2924,6.2733,6.2906,6.2905,6.2904,6.2904,6.2903,6.2156,6.2212,6.227,6.2343,6.2387,6.2439,6.2497,6.253,6.2597,6.2678,6.2687,6.2774,6.2833,6.2935,6.2974,6.3043,6.3026,6.3052,6.306,6.3066,6.3072,6.2903,6.3057,6.3056,6.3056,6.3056,6.3056,0,6.2298,6.2335,6.2402,6.248,6.2538,6.2529,6.2591,6.2641,6.2717,6.2771,6.2834,6.2927,6.3003,6.3049,6.3126,6.3173,6.3174,6.3193,6.319,6.3199,6.3081,6.3058,6.3191,6.3191,6.319,6.319,6.319,6.319,6.2379,6.2474,6.2493,6.261,6.2647,6.2731,6.2767,6.2816,6.286,6.2964,6.3027,6.3056,6.3108,6.3189,6.3259,6.3271,6.33,6.332,6.3331,6.3221,6.3207,6.3194,6.3172,6.3326,6.3326,6.3443,6.3444,6.3445]},{"header":{"parameterUnit":"m.s-1","parameterCategory":1,"la1":30.2991,"la2":30.254,"lo1":-89.0895,"lo2":-89.0444,"dy":0.0017,"dx":0.0017,"nx":28,"ny":28,"refTime":"2025-03-15T09:00:00:Z","depth":0,"parameterNumber":3,"parameterNumberName":"V-component_of_WINDS"},"data":[0,0,0,0,0,0,0,0,0,0,0,0,0,0,0,0,0,0,0,0,0,0,0,0,0,0,0,0,0,0,0,0,0,0,0,0,0,0,0,0,0,0,0,0,0,0,0,0,0,0,0,0,0,0,0,0,0,0,-1.1254,-1.1253,0,-1.1189,-1.1188,-1.1188,-1.1194,-1.1195,-1.1196,-1.1196,-1.1127,-1.1124,-1.1121,0,0,0,0,0,0,0,0,0,0,0,0,0,-1.1384,-1.1381,-1.1254,-1.1253,-1.1253,-1.1189,-1.1188,-1.1187,-1.1193,-1.1195,-1.1196,-1.1197,-1.1127,-1.1124,-1.1121,0,0,0,0,0,0,0,0,0,0,0,0,0,-1.1324,-1.138,-1.1254,-1.1248,-1.1247,-1.1189,-1.1188,-1.1187,-1.1193,-1.1195,-1.1196,-1.1198,-1.1129,-1.1125,-1.112,-1.1064,0,0,-1.1108,-1.1106,0,0,0,0,0,0,0,0,-1.1327,-1.1319,-1.125,-1.1248,-1.1247,-1.1201,-1.1208,-1.1146,-1.1193,-1.1213,-1.1197,-1.1198,-1.115,-1.1144,-1.1128,-1.1061,-1.1058,-1.1107,-1.1105,-1.1103,-1.1102,0,0,0,0,0,0,0,-1.1331,-1.1322,-1.1228,-1.1249,-1.1247,-1.1248,-1.1242,-1.1196,-1.1174,-1.1212,-1.1212,-1.1204,-1.1149,-1.1132,-1.1127,-1.1057,-1.1107,-1.1104,-1.1101,-1.1099,-1.0944,-1.0942,0,0,0,0,0,0,-1.1337,-1.1325,-1.123,-1.1226,-1.1292,-1.1245,-1.1237,-1.1214,-1.1174,-1.117,-1.1203,-1.1205,-1.1139,-1.1132,-1.1124,-1.1058,-1.1103,-1.1099,-1.1096,-1.0946,-1.0944,-1.0942,0,0,0,0,0,0,-1.134,-1.1329,-1.1233,-1.1276,-1.1264,-1.1241,-1.1215,-1.1212,-1.1195,-1.1168,-1.1164,-1.119,-1.114,-1.113,-1.108,-1.1056,-1.1097,-1.1093,-1.0947,-1.0945,-1.0943,-1.0924,0,0,0,0,0,0,-1.1344,-1.1329,-1.1307,-1.1275,-1.1262,-1.119,-1.1214,-1.121,-1.1188,-1.119,-1.1154,-1.115,-1.114,-1.1086,-1.1076,-1.1051,-1.109,-1.0949,-1.0946,-1.0944,-1.0927,-1.0921,-1.0917,0,0,0,0,0,-1.1348,-1.1303,-1.1306,-1.1295,-1.1234,-1.1188,-1.118,-1.1171,-1.1186,-1.1164,-1.1148,-1.1151,-1.1061,-1.1081,-1.107,-1.1043,-1.0951,-1.0947,-1.0944,-1.0929,-1.0922,-1.0917,0,0,0,0,0,0,-1.1331,-1.1299,-1.1302,-1.1245,-1.122,-1.1189,-1.1161,-1.1164,-1.1132,-1.1135,-1.1124,-1.1116,-1.1066,-1.1049,-1.1073,-1.0988,-1.1008,-1.1002,-1.1001,-1.0994,-1.0989,-1.0994,-1.1086,0,0,0,0,0,-1.1321,-1.1287,-1.1261,-1.1213,-1.1201,-1.1183,-1.1163,-1.1159,-1.1131,-1.112,-1.1099,-1.1072,-1.1038,-1.1015,-1.0982,-1.0925,-1.0919,-1.0901,-1.0896,-1.0892,-1.0887,-1.0859,-1.0851,-1.093,-1.093,-1.093,0,0,-1.1299,-1.1277,-1.1256,-1.121,-1.1189,-1.1155,-1.1174,-1.1136,-1.1111,-1.1114,-1.1066,-1.105,-1.1019,-1.0967,-1.0942,-1.0951,-1.0864,-1.0888,-1.0885,-1.0881,-1.0854,-1.0847,-1.084,-1.0928,-1.0928,-1.0928,0,0,-1.1242,-1.1222,-1.1182,-1.1162,-1.1132,-1.1121,-1.1112,-1.1082,-1.1073,-1.1025,-1.1028,-1.0998,-1.0938,-1.0917,-1.0898,-1.0839,-1.0841,-1.0828,-1.0801,-1.0774,-1.0768,-1.0762,-1.0743,-1.0736,-1.0823,-1.0823,-1.0823,0,-1.1218,-1.1167,-1.116,-1.1123,-1.1104,-1.1108,-1.1068,-1.1049,-1.1009,-1.0995,-1.1006,-1.0935,-1.0914,-1.0858,-1.0844,-1.0828,-1.0818,-1.0831,-1.077,-1.0764,-1.0759,-1.074,-1.0732,-1.0822,-1.0822,-1.0822,-1.0822,0,-1.114,-1.1105,-1.1076,-1.1041,-1.1018,-1.0979,-1.0968,-1.0945,-1.0944,-1.0933,-1.0886,-1.0862,-1.0825,-1.0812,-1.0809,-1.0756,-1.0763,-1.0772,-1.0791,-1.075,-1.0732,-1.0725,-1.082,-1.082,-1.0821,-1.0821,0,0,-1.1067,-1.1032,-1.1021,-1.1007,-1.0976,-1.0949,-1.0912,-1.0878,-1.086,-1.0834,-1.0803,-1.0755,-1.0764,-1.0743,-1.0739,-1.0715,-1.0672,-1.0727,-1.0726,-1.0719,-1.0615,-1.0609,-1.0601,-1.0674,-1.0673,-1.0672,-1.0618,0,-1.1008,-1.0944,-1.0939,-1.088,-1.0849,-1.0855,-1.0823,-1.0801,-1.0791,-1.0763,-1.0751,-1.0718,-1.0731,-1.072,-1.0696,-1.0682,-1.0651,-1.0686,-1.0646,-1.0645,-1.0654,-1.0591,-1.0584,-1.0534,-1.0611,-1.061,-1.0609,0,-1.093,-1.0904,-1.0843,-1.0821,-1.0807,-1.0779,-1.0749,-1.0722,-1.0699,-1.0693,-1.0672,-1.0672,-1.0635,-1.0657,-1.0607,-1.0631,-1.0615,-1.0606,-1.0604,-1.06,-1.0624,-1.0586,-1.0518,-1.0511,-1.0598,-1.0599,-1.0599,0,-1.0885,-1.0835,-1.0793,-1.078,-1.0752,-1.0732,-1.0719,-1.0697,-1.0679,-1.0653,-1.0642,-1.0611,-1.0595,-1.0572,-1.0564,-1.0581,-1.0515,-1.0536,-1.051,-1.051,-1.0495,-1.0496,-1.0424,-1.0484,-1.0485,-1.0485,-1.0485,0,-1.0819,-1.0782,-1.0773,-1.0747,-1.0707,-1.0702,-1.0662,-1.0651,-1.0632,-1.0605,-1.0607,-1.0582,-1.0573,-1.0546,-1.054,-1.0501,-1.0493,-1.0488,-1.0486,-1.0488,-1.0488,-1.0476,-1.048,-1.0483,-1.0483,-1.0484,-1.0484,0,-1.0761,-1.0753,-1.0709,-1.0687,-1.0681,-1.0653,-1.0635,-1.061,-1.0602,-1.0568,-1.0559,-1.0546,-1.0515,-1.0505,-1.0467,-1.0463,-1.0418,-1.0419,-1.0426,-1.0426,-1.0402,-1.0405,-1.032,-1.0309,-1.0376,-1.0375,-1.0374,0,-1.072,-1.0692,-1.067,-1.0652,-1.064,-1.0611,-1.0594,-1.0589,-1.057,-1.0544,-1.0523,-1.0493,-1.0469,-1.0419,-1.0406,-1.0378,-1.0379,-1.0352,-1.0375,-1.0378,-1.038,-1.0382,-1.0381,-1.0347,-1.0346,-1.0346,-1.0345,0,-1.0649,-1.0647,-1.0622,-1.0596,-1.0575,-1.0554,-1.0533,-1.0519,-1.0512,-1.0491,-1.0461,-1.0442,-1.0406,-1.0376,-1.0349,-1.0336,-1.034,-1.0339,-1.0331,-1.0332,-1.0338,-1.0336,-1.0415,-1.034,-1.0341,-1.0341,-1.0341,-1.0341,-1.0598,-1.0575,-1.0557,-1.0529,-1.0515,-1.0497,-1.0474,-1.0464,-1.0439,-1.041,-1.0409,-1.0376,-1.0357,-1.0321,-1.0307,-1.0282,-1.029,-1.0279,-1.0276,-1.0274,-1.0273,-1.0342,-1.0277,-1.0277,-1.0277,-1.0277,-1.0277,0,-1.0528,-1.0518,-1.0493,-1.0466,-1.0445,-1.0453,-1.0432,-1.0414,-1.0385,-1.0368,-1.0345,-1.0312,-1.0284,-1.0271,-1.0244,-1.0227,-1.0228,-1.022,-1.0221,-1.0219,-1.0266,-1.0276,-1.0219,-1.0219,-1.0219,-1.0219,-1.0219,-1.0219,-1.0489,-1.0452,-1.0449,-1.0405,-1.0394,-1.0364,-1.0351,-1.0336,-1.0322,-1.0285,-1.0263,-1.0255,-1.0239,-1.0212,-1.0188,-1.0185,-1.0175,-1.0167,-1.0164,-1.0209,-1.0215,-1.022,-1.0229,-1.0164,-1.0164,-1.0119,-1.0119,-1.0118]}]]